Bintulu, Malaysia

2:39 PM +08 on April 29, 2017 (GMT +0800)
Bintulu

Weather History for WBGB - January, 2013

Change the Weather History Date:

Wednesday, January 9, 2013

  Actual Average Record
Temperature  
Mean Temperature 80 °F -  
Max Temperature 87 °F 85 °F - ()
Min Temperature 72 °F 74 °F - ()
Cooling Degree Days 14    
Growing Degree Days 30 (Base 50)    
Moisture  
Dew Point 74 °F    
Average Humidity 92    
Maximum Humidity 100    
Minimum Humidity 70    
Precipitation  
Precipitation 1.42 in 0.50 in - ()
Sea Level Pressure  
Sea Level Pressure 29.74 in    
Wind  
Wind Speed 3 mph ()    
Max Wind Speed 10 mph    
Max Gust Speed -    
Visibility 6.9 miles    
Events Rain    
T = Trace of Precipitation, MM = Missing Value Source: Averaged Metar Reports

Daily Weather History Graph

Daily Weather History Graph

Search for Another Location

Airport or City:

Trip Planner

Search our weather history database for the weather conditions in past years. The results will help you decide how hot, cold, wet, or windy it might be!

Date:

Astronomy

Jan. 09, 2013 Rise Set
Actual Time 6:36 AM +08 6:33 PM +08
Civil Twilight 6:14 AM +08 6:55 PM +08
Nautical Twilight 5:48 AM +08 7:21 PM +08
Astronomical Twilight 5:22 AM +08 7:47 PM +08
Moon 3:40 AM +08 (1/9) 4:00 PM +08 (1/9)
Length of Visible Light 12h 41m
Length of Day
11h 57m
Waning Crescent, 10% of the Moon is Illuminated
Jan 9
Waning Crescent
Jan 12
New
Jan 19
First Quarter
Jan 27
Full
Feb 3
Last Quarter

Hourly Weather History & Observations

Time (+08) Temp. Heat Index Dew Point Humidity Pressure Visibility Wind Dir Wind Speed Gust Speed Precip Events Conditions
12:00 AM 73.4 °F - 71.6 °F 94% 29.77 in 6.2 mi ESE 2.3 mph - N/A   Mostly Cloudy
1:00 AM 73.4 °F - 71.6 °F 94% 29.77 in 6.2 mi ESE 3.5 mph - N/A   Mostly Cloudy
2:00 AM 74 °F - 72 °F 91% 29.76 in 11 mi East 2.3 mph - -   Partly Cloudy
2:00 AM 73.4 °F - 71.6 °F 94% 29.74 in 6.2 mi East 2.3 mph - N/A   Mostly Cloudy
3:00 AM 73.4 °F - 71.6 °F 94% 29.74 in 6.2 mi East 3.5 mph - N/A   Mostly Cloudy
4:00 AM 75.2 °F - 73.4 °F 94% 29.71 in 6.2 mi ESE 2.3 mph - N/A   Mostly Cloudy
5:00 AM 74 °F - 73 °F 95% 29.73 in 11 mi East 4.6 mph - -   Partly Cloudy
5:00 AM 75.2 °F - 73.4 °F 94% 29.71 in 6.2 mi East 4.6 mph - N/A   Mostly Cloudy
6:00 AM 73.4 °F - 73.4 °F 100% 29.74 in 6.2 mi East 3.5 mph - N/A   Mostly Cloudy
7:00 AM 75.2 °F - 73.4 °F 94% 29.77 in 6.2 mi North 1.2 mph - N/A Rain Light Rain
8:00 AM 75 °F - 74 °F 94% 29.79 in 19 mi East 4.6 mph - - Rain Light Rain
8:00 AM 75.2 °F - 73.4 °F 94% 29.77 in 6.2 mi East 4.6 mph - N/A   Mostly Cloudy
9:00 AM 78.8 °F - 75.2 °F 89% 29.77 in 6.2 mi ENE 4.6 mph - N/A   Mostly Cloudy
10:00 AM 82.4 °F 90.9 °F 77.0 °F 84% 29.77 in 6.2 mi East 4.6 mph - N/A   Mostly Cloudy
11:00 AM 85 °F - 77 °F 71% 29.78 in 19 mi ESE 3.5 mph - -   Partly Cloudy
11:00 AM 86.0 °F 96.9 °F 77.0 °F 74% 29.77 in 6.2 mi ESE 3.5 mph - N/A   Mostly Cloudy
12:00 PM 86.0 °F 95.1 °F 75.2 °F 70% 29.74 in 6.2 mi SSE 4.6 mph - N/A   Mostly Cloudy
1:00 PM 87.8 °F 99.7 °F 77.0 °F 70% 29.71 in 6.2 mi ESE 4.6 mph - N/A   Mostly Cloudy
2:00 PM 77 °F - 75 °F 92% 29.72 in 1 mi SE 4.6 mph - - Rain Heavy Rain Showers
2:00 PM 77.0 °F - 75.2 °F 94% 29.71 in 1.2 mi SE 4.6 mph - N/A Rain Heavy Rain Showers
3:00 PM 73.4 °F - 73.4 °F 100% 29.71 in 0.9 mi SW 10.4 mph - N/A Rain Heavy Rain
4:00 PM 75.2 °F - 73.4 °F 94% 29.68 in 3.7 mi SSW 4.6 mph - N/A Rain Light Rain
5:00 PM 75 °F - 74 °F 98% 29.70 in 6 mi SE 2.3 mph - - Rain Light Rain
5:00 PM 75.2 °F - 75.2 °F 100% 29.68 in 6.2 mi SE 2.3 mph - N/A Rain Light Rain
6:00 PM 75.2 °F - 75.2 °F 100% 29.71 in 6.2 mi ENE 2.3 mph - N/A Rain Light Rain
7:00 PM 75.2 °F - 75.2 °F 100% 29.71 in 6.2 mi East 3.5 mph - N/A   Mostly Cloudy
8:00 PM 75 °F - 74 °F 96% 29.74 in 11 mi East 4.6 mph - -   Partly Cloudy
8:00 PM 75.2 °F - 73.4 °F 94% 29.74 in 6.2 mi East 4.6 mph - N/A   Mostly Cloudy
9:00 PM 75.2 °F - 75.2 °F 100% 29.74 in 6.2 mi ENE 2.3 mph - N/A   Mostly Cloudy
10:00 PM 75.2 °F - 73.4 °F 94% 29.74 in 6.2 mi ESE 5.8 mph - N/A   Mostly Cloudy
11:00 PM 75.2 °F - 73.4 °F 94% 29.74 in 6.2 mi East 5.8 mph - N/A Rain Light Rain